When you browse on this site, cookies collect data to enhance your experience and personalize the content and advertising you see.
Visit our Privacy Policy to learn more. By continuing to use the site, you agree to this use of cookies and data.
  • Em Portugal
  • Lista de países
  • Para 7 dias
  • Temperatura da água
  • Mapas de satélite
  • Mapa do tempo
  • Widgets de tempo
  • user-avatar
    Iniciar Sessão

    Previsão horária em Uniechowek

    Hoje, 11 Dezembro, Terça-feira

    Tempo Temperatura Precipitação Vento Pressão Humidade
    00:00 0°C° 0.1 mm 4 m/s 739 mmHg 85%
    01:00 0°C° 0 mm 4 m/s 739 mmHg 86%
    02:00 0°C° 0.4 mm 4 m/s 739 mmHg 86%
    03:00 0°C° 0.4 mm 4 m/s 739 mmHg 87%
    04:00 +1°C° 0.4 mm 4 m/s 739 mmHg 87%
    05:00 +1°C° 0.1 mm 3 m/s 739 mmHg 88%
    06:00 +1°C° 0.1 mm 3 m/s 739 mmHg 90%
    07:00 +1°C° 0 mm 2 m/s 740 mmHg 92%
    08:00 +2°C° 0 mm 2 m/s 740 mmHg 90%
    09:00 +1°C° 0 mm 3 m/s 741 mmHg 89%
    10:00 +1°C° 0 mm 3 m/s 742 mmHg 87%
    11:00 +1°C° 0.1 mm 3 m/s 742 mmHg 85%
    12:00 +2°C° 0.1 mm 3 m/s 743 mmHg 83%
    13:00 +2°C° 0 mm 3 m/s 743 mmHg 81%
    14:00 +2°C° 0.1 mm 3 m/s 744 mmHg 83%
    15:00 +2°C° 0.1 mm 3 m/s 744 mmHg 84%
    16:00 +2°C° 0.1 mm 2 m/s 745 mmHg 86%
    17:00 +2°C° 0 mm 2 m/s 745 mmHg 88%
    18:00 +2°C° 0 mm 2 m/s 745 mmHg 91%
    19:00 +1°C° 0 mm 2 m/s 746 mmHg 93%
    20:00 +1°C° 0 mm 2 m/s 746 mmHg 92%
    21:00 +1°C° 0 mm 2 m/s 747 mmHg 92%
    22:00 +1°C° 0 mm 2 m/s 747 mmHg 92%
    23:00 +1°C° 0 mm 2 m/s 748 mmHg 91%

    Amanhã, 12 Dezembro, Quarta-feira

    Tempo Temperatura Precipitação Vento Pressão Humidade
    00:00 +1°C° 0 mm 2 m/s 748 mmHg 90%
    01:00 +1°C° 0 mm 2 m/s 749 mmHg 89%
    02:00 +1°C° 0 mm 2 m/s 749 mmHg 89%
    03:00 +1°C° 0 mm 2 m/s 750 mmHg 89%
    04:00 +1°C° 0 mm 2 m/s 750 mmHg 89%
    05:00 -1°C° 0 mm 2 m/s 751 mmHg 90%
    06:00 -1°C° 0 mm 2 m/s 751 mmHg 90%
    07:00 -2°C° 0 mm 2 m/s 751 mmHg 91%
    08:00 -1°C° 0 mm 2 m/s 752 mmHg 89%
    09:00 -1°C° 0 mm 2 m/s 752 mmHg 87%
    10:00 +1°C° 0 mm 2 m/s 753 mmHg 85%
    11:00 +1°C° 0 mm 2 m/s 753 mmHg 83%
    12:00 +2°C° 0 mm 2 m/s 753 mmHg 82%
    13:00 +2°C° 0 mm 2 m/s 753 mmHg 81%
    14:00 +2°C° 0 mm 2 m/s 754 mmHg 84%
    15:00 +2°C° 0 mm 1 m/s 754 mmHg 88%
    16:00 +1°C° 0 mm 1 m/s 754 mmHg 92%
    17:00 -1°C° 0 mm 2 m/s 754 mmHg 92%
    18:00 -1°C° 0 mm 2 m/s 754 mmHg 93%
    19:00 -1°C° 0 mm 2 m/s 754 mmHg 94%
    20:00 -1°C° 0 mm 2 m/s 754 mmHg 94%
    21:00 -1°C° 0 mm 2 m/s 754 mmHg 94%
    22:00 -1°C° 0 mm 2 m/s 755 mmHg 94%
    23:00 -1°C° 0 mm 2 m/s 755 mmHg 94%

    Depois de amanhã, 13 Dezembro, Quinta-feira

    Tempo Temperatura Precipitação Vento Pressão Humidade
    00:00 -1°C° 0 mm 2 m/s 755 mmHg 94%
    01:00 -1°C° 0 mm 2 m/s 755 mmHg 94%
    02:00 -1°C° 0 mm 2 m/s 754 mmHg 93%
    03:00 -1°C° 0 mm 2 m/s 754 mmHg 93%
    04:00 -1°C° 0 mm 2 m/s 754 mmHg 93%
    05:00 -2°C° 0 mm 2 m/s 754 mmHg 92%
    06:00 -2°C° 0 mm 2 m/s 754 mmHg 91%
    07:00 -2°C° 0 mm 2 m/s 754 mmHg 90%
    08:00 -2°C° 0 mm 2 m/s 754 mmHg 87%
    09:00 -1°C° 0 mm 2 m/s 754 mmHg 85%
    10:00 -1°C° 0 mm 2 m/s 754 mmHg 83%
    11:00 -1°C° 0 mm 2 m/s 754 mmHg 81%
    12:00 -1°C° 0 mm 2 m/s 754 mmHg 79%
    13:00 +2°C° 0 mm 1 m/s 754 mmHg 77%
    14:00 +1°C° 0 mm 1 m/s 754 mmHg 80%
    15:00 +1°C° 0 mm 1 m/s 754 mmHg 83%
    16:00 0°C° 0 mm 1 m/s 754 mmHg 86%
    17:00 0°C° 0 mm 1 m/s 754 mmHg 87%
    18:00 0°C° 0 mm 1 m/s 754 mmHg 89%
    19:00 0°C° 0 mm 1 m/s 754 mmHg 90%
    20:00 -3°C° 0 mm 2 m/s 754 mmHg 90%
    21:00 -3°C° 0 mm 2 m/s 754 mmHg 91%
    22:00 -3°C° 0 mm 2 m/s 755 mmHg 91%
    23:00 -3°C° 0 mm 2 m/s 755 mmHg 91%

    14 Dezembro, Sexta-feira

    Tempo Temperatura Precipitação Vento Pressão Humidade
    00:00 -3°C° 0 mm 2 m/s 755 mmHg 90%
    01:00 -3°C° 0 mm 2 m/s 755 mmHg 90%
    02:00 -3°C° 0 mm 2 m/s 755 mmHg 89%
    03:00 -3°C° 0 mm 2 m/s 755 mmHg 89%
    04:00 -3°C° 0 mm 2 m/s 755 mmHg 89%
    05:00 -3°C° 0 mm 2 m/s 755 mmHg 89%
    06:00 -4°C° 0 mm 2 m/s 755 mmHg 89%
    07:00 -4°C° 0 mm 2 m/s 755 mmHg 89%
    08:00 -3°C° 0 mm 2 m/s 755 mmHg 87%
    09:00 -3°C° 0 mm 2 m/s 756 mmHg 86%
    10:00 -3°C° 0 mm 2 m/s 756 mmHg 84%
    11:00 -2°C° 0 mm 2 m/s 756 mmHg 81%
    12:00 -2°C° 0 mm 2 m/s 756 mmHg 78%
    13:00 -2°C° 0 mm 2 m/s 756 mmHg 75%
    14:00 -2°C° 0 mm 2 m/s 756 mmHg 78%
    15:00 -3°C° 0 mm 2 m/s 756 mmHg 81%
    16:00 -3°C° 0 mm 2 m/s 756 mmHg 84%
    17:00 -3°C° 0 mm 2 m/s 756 mmHg 84%
    18:00 -3°C° 0 mm 2 m/s 757 mmHg 85%
    19:00 -4°C° 0 mm 2 m/s 757 mmHg 86%
    20:00 -4°C° 0 mm 2 m/s 757 mmHg 86%
    21:00 -4°C° 0 mm 2 m/s 757 mmHg 87%
    22:00 -4°C° 0 mm 2 m/s 757 mmHg 87%
    23:00 -4°C° 0 mm 2 m/s 757 mmHg 87%

    15 Dezembro, Sábado

    Tempo Temperatura Precipitação Vento Pressão Humidade
    00:00 -2°C° 0 mm 1 m/s 757 mmHg 88%
    01:00 -2°C° 0 mm 1 m/s 757 mmHg 88%
    02:00 -2°C° 0 mm 1 m/s 757 mmHg 89%
    03:00 -4°C° 0 mm 2 m/s 757 mmHg 90%
    04:00 -4°C° 0 mm 2 m/s 757 mmHg 90%
    05:00 -4°C° 0 mm 2 m/s 758 mmHg 91%
    06:00 -4°C° 0 mm 2 m/s 758 mmHg 91%
    07:00 -4°C° 0 mm 2 m/s 758 mmHg 92%
    08:00 -4°C° 0 mm 2 m/s 758 mmHg 91%
    09:00 -3°C° 0 mm 2 m/s 759 mmHg 90%
    10:00 -3°C° 0 mm 2 m/s 759 mmHg 89%
    11:00 -2°C° 0 mm 2 m/s 759 mmHg 87%
    12:00 -2°C° 0 mm 2 m/s 759 mmHg 86%
    13:00 -2°C° 0 mm 2 m/s 759 mmHg 85%
    14:00 -2°C° 0 mm 2 m/s 759 mmHg 88%
    15:00 -3°C° 0 mm 2 m/s 760 mmHg 91%
    16:00 -3°C° 0 mm 2 m/s 760 mmHg 94%
    17:00 -3°C° 0 mm 2 m/s 760 mmHg 94%
    18:00 -3°C° 0 mm 2 m/s 760 mmHg 94%
    19:00 -3°C° 0 mm 2 m/s 760 mmHg 95%
    20:00 -3°C° 0 mm 2 m/s 760 mmHg 95%
    21:00 -4°C° 0 mm 2 m/s 760 mmHg 95%
    22:00 -4°C° 0 mm 2 m/s 760 mmHg 95%
    23:00 -4°C° 0 mm 2 m/s 760 mmHg 94%

    16 Dezembro, Domingo

    Tempo Temperatura Precipitação Vento Pressão Humidade
    00:00 -3°C° 0 mm 2 m/s 760 mmHg 93%
    01:00 -3°C° 0 mm 2 m/s 760 mmHg 92%
    02:00 -4°C° 0 mm 2 m/s 759 mmHg 92%
    03:00 -5°C° 0 mm 3 m/s 759 mmHg 91%
    04:00 -5°C° 0 mm 3 m/s 759 mmHg 91%
    05:00 -5°C° 0 mm 3 m/s 758 mmHg 89%
    06:00 -5°C° 0 mm 3 m/s 758 mmHg 88%
    07:00 -5°C° 0 mm 4 m/s 758 mmHg 87%
    08:00 -5°C° 0 mm 4 m/s 758 mmHg 83%
    09:00 -4°C° 0 mm 4 m/s 758 mmHg 80%
    10:00 -5°C° 0 mm 5 m/s 757 mmHg 76%
    11:00 -5°C° 0 mm 5 m/s 757 mmHg 75%
    12:00 -4°C° 0 mm 5 m/s 756 mmHg 74%
    13:00 -4°C° 0 mm 6 m/s 756 mmHg 73%
    14:00 -4°C° 0 mm 6 m/s 755 mmHg 75%
    15:00 -5°C° 0 mm 6 m/s 755 mmHg 77%
    16:00 -5°C° 0 mm 6 m/s 754 mmHg 79%
    17:00 -5°C° 0 mm 6 m/s 754 mmHg 79%
    18:00 -5°C° 0 mm 6 m/s 754 mmHg 79%
    19:00 -4°C° 0 mm 6 m/s 754 mmHg 79%
    20:00 -4°C° 0 mm 6 m/s 753 mmHg 78%
    21:00 -4°C° 0 mm 6 m/s 753 mmHg 78%
    22:00 -4°C° 0 mm 6 m/s 753 mmHg 77%
    23:00 -4°C° 0 mm 5 m/s 752 mmHg 78%
    Mostrar mais